Home   Weather   Haywards Heath   Past weeks

Flag for United Kingdom Past Weather in Haywards Heath, England, United Kingdom — Yesterday and Last 2 Weeks

Now
68 °F

Passing clouds.


Feels Like: 68 °F
Forecast: 62 / 70 °F
Wind: 9 mph from Southwest

Location: London / Gatwick Airport

Current Time: Aug 16, 2017 at 6:46:38 pm

Latest Report: Aug 16, 2017 at 6:20 pm


Visibility: N/A

Pressure: 30.07 "Hg

Humidity: 60%

Dew Point: 54 °F

Location of Haywards HeathLocation

Past Weather in Haywards Heath — Graph

°F

Haywards Heath Temperature Yesterday

Maximum temperature yesterday: 73 °F (at 3:20 pm)
Minimum temperature yesterday: 55 °F (at 11:50 pm)
Average temperature yesterday: 65 °F

High & Low Weather Summary for the Past Weeks

 TemperatureHumidityPressure
High73 °F (Aug 14, 2:20 pm)100% (Aug 2, 1:50 pm)30.24 "Hg (Aug 2, 1:50 pm)
Low46 °F (Aug 11, 5:50 am)40% (Aug 13, 1:20 pm)29.71 "Hg (Aug 3, 1:20 am)
Average61 °F78%30.01 "Hg
* Reported Aug 1 5:20 pm — Aug 16 5:20 pm, Haywards Heath. Weather by CustomWeather, © 2017

Note: Actual official high and low records may vary slightly from our data, if they occured in-between our weather recording intervals... More about our weather records

Advertising

Haywards Heath Weather History for the Previous 24 Hours

Scroll right to see more
 ConditionsComfort  
Time TempWeatherWind HumidityBarometerVisibility
5:20 pm
Wed, Aug 16
66 °FPassing clouds.10 mph64%30.07 "HgN/A
4:50 pm68 °FPassing clouds.10 mph60%30.07 "HgN/A
4:20 pm68 °FPassing clouds.10 mph60%30.07 "HgN/A
3:50 pm70 °FPassing clouds.10 mph53%30.09 "HgN/A
3:20 pm70 °FPassing clouds.12 mph57%30.09 "HgN/A
2:50 pm70 °FPassing clouds.13 mph53%30.09 "HgN/A
2:20 pm70 °FPassing clouds.12 mph57%30.09 "HgN/A
1:50 pm70 °FPassing clouds.12 mph53%30.09 "HgN/A
1:20 pm68 °FPassing clouds.10 mph56%30.09 "HgN/A
12:50 pm68 °FScattered clouds.8 mph56%30.09 "HgN/A
12:20 pm68 °FScattered clouds.9 mph60%30.12 "HgN/A
11:50 am68 °FScattered clouds.9 mph64%30.12 "HgN/A
11:20 am66 °FScattered clouds.9 mph73%30.12 "HgN/A
10:50 am64 °FScattered clouds.8 mph78%30.15 "HgN/A
10:20 am64 °FBroken clouds.8 mph78%30.12 "HgN/A
9:50 am63 °FPassing clouds.6 mph83%30.12 "HgN/A
9:20 am61 °FPassing clouds.3 mph83%30.12 "HgN/A
8:50 am59 °FSunny.No wind77%30.12 "Hg10 mi
8:20 am57 °FSunny.No wind82%30.12 "Hg10 mi
7:50 am55 °FSunny.2 mph88%30.12 "Hg10 mi
7:20 am54 °FSunny.No wind88%30.12 "Hg10 mi
6:50 am52 °FSunny.No wind88%30.12 "Hg10 mi
6:20 am50 °FSunny.No wind94%30.12 "Hg10 mi
5:50 am50 °FSunny.2 mph94%30.12 "Hg10 mi
5:20 am50 °FClear.No wind88%30.12 "Hg10 mi
4:50 am50 °FClear.No wind94%30.09 "Hg10 mi
4:20 am48 °FClear.No wind94%30.09 "Hg10 mi
3:50 am50 °FClear.3 mph88%30.09 "Hg10 mi
3:20 am52 °FClear.No wind88%30.09 "Hg10 mi
2:50 am52 °FClear.No wind88%30.09 "Hg10 mi
1:50 am54 °FClear.2 mph82%30.12 "Hg10 mi
1:20 am54 °FClear.No wind82%30.12 "Hg10 mi
12:50 am54 °FClear.No wind82%30.12 "Hg10 mi
12:20 am54 °FClear.2 mph82%30.09 "Hg10 mi
11:50 pm
Tue, Aug 15
55 °FClear.No wind77%30.09 "Hg10 mi
11:20 pm57 °FClear.No wind72%30.09 "Hg10 mi
10:50 pm59 °FClear.No wind68%30.09 "Hg10 mi
10:20 pm61 °FClear.2 mph63%30.09 "Hg10 mi
9:50 pm61 °FClear.3 mph68%30.09 "Hg10 mi
9:20 pm63 °FClear.5 mph64%30.07 "Hg10 mi
8:50 pm64 °FClear.5 mph64%30.07 "Hg10 mi
8:20 pm66 °FSunny.6 mph64%30.04 "Hg10 mi
7:50 pm68 °FSunny.8 mph56%30.04 "Hg10 mi
7:20 pm72 °FSunny.8 mph53%30.01 "Hg10 mi
6:50 pm70 °FSunny.9 mph57%30.01 "Hg10 mi
6:20 pm72 °FSunny.8 mph50%30.01 "Hg10 mi
Weather by CustomWeather, © 2017

See weather overviewHow to use our weather pages